Location: Banff
(51.1667°N, 115.5667°W)
Time: 03:52:29
(UTC+00:00)

S-56A Canister/Altair - Pass Details

Date: 12 May 2021
Orbit: 632 x 2500 km, 38.9° (Epoch: 16 June)

Event Time Altitude Azimuth Distance (km) Brightness Sun altitude
Rises 03:55:11 0° 269° (W) 6,144 13.1 -5.2°
Reaches altitude 10° 03:59:43 10° 263° (W) 5,032 12.4 -5.8°
Maximum altitude 04:12:06 39° 203° (SSW) 2,750 10.2 -7.3°
Drops below altitude 10° 04:21:24 10° 139° (SE) 3,783 10.4 -8.4°
Enters shadow 04:21:34 - 138° (SE) 3,821 10.4 -8.4°
